Regional Weather Roundup
Issued by NWS

Home | Current Version | Previous Version | Text Only | Print | Product List | Glossary On
Versions: 1 2 3 4 5 6 7 8 9 10 11 12 13 14 15 16 17 18 19 20 21 22 23 24 25 26 27 28 29 30 31 32 33 34 35 36 37 38 39 40 41 42 43 44 45 46 47 48 49 50
857
ASUS43 KBIS 281510
RWRND

NORTH DAKOTA REGIONAL WEATHER ROUNDUP
NATIONAL WEATHER SERVICE BISMARCK ND
1000 AM CDT SUN MAY 28 2017

NOTE: "FAIR" INDICATES FEW OR NO CLOUDS BELOW 12,000 FEET WITH NO
SIGNIFICANT WEATHER AND/OR OBSTRUCTIONS TO VISIBILITY.


NDZ001>003-009>011-017-281600-
NORTHWEST NORTH DAKOTA

CITY           SKY/WX    TMP DP  RH WIND       PRES   REMARKS
WILLISTON      FAIR      67  38  34 W12       29.97F
MINOT          FAIR      64  45  49 W18       29.89S
MINOT AFB      MOSUNNY   62  47  58 NW20      29.88S
$$

NDZ018>021-031>035-040>046-281600-
SOUTHWEST NORTH DAKOTA

CITY           SKY/WX    TMP DP  RH WIND       PRES   REMARKS
BISMARCK       FAIR      65  44  46 NW14      29.94R
DICKINSON      PTSUNNY   62  35  36 NW17      29.99S
GARRISON         N/A     62  45  53 NW17      29.92S
HETTINGER ARPT SUNNY     64  36  35 NW17      30.03S
$$

NDZ004>008-012>016-024-026-027-054-281600-
NORTHEAST NORTH DAKOTA

CITY           SKY/WX    TMP DP  RH WIND       PRES   REMARKS
GRAND FORKS    CLOUDY    57  52  83 NW16      29.77R
GRND FRKS AFB  CLOUDY    56  50  82 N17G24    29.78R
DEVILS LAKE    FAIR      59  45  59 NW18G26   29.83R
$$

NDZ022-023-025-028>030-036>039-047>053-281600-
SOUTHEAST NORTH DAKOTA

CITY           SKY/WX    TMP DP  RH WIND       PRES   REMARKS
FARGO          CLOUDY    61  50  67 NW12      29.78R
JAMESTOWN      FAIR      63  46  54 NW20G30   29.84R
$$





USA.gov is the U.S. government's official web portal to all federal, state and local government web resources and services.